Voltar ao catálogo

STARLINK-35487

AtivoComunicaçõesVLEO
NORAD 66262·PAYLOAD·🇺🇸 United States

Lançado Oct 29, 2025 de Cape Canaveral Space Force Station

Loading…

Próximas Passagens (próximas 24 horas)

TLE

AtualizadoSource: CelesTrak SupGP

Época: Sep 14, 2026, 21:38 UTC

1 66262C 25245AE  26257.90187500 -.00046256  00000+0 -14876-2 0  2571
2 66262  53.1569 123.7858 0001240  81.5235 257.8218 15.31723289    13

Acompanhe STARLINK-35487 em tempo real com AllMySat

Download on the App Store